Terug naar catalogus

STARLINK-4021

ActiefCommunicatieVLEO
NORAD 53149·PAYLOAD·🇺🇸 United States

Gelanceerd Jul 17, 2022 vanaf Cape Canaveral Space Force Station

Loading…

Volgende Passages (komende 24 uur)

TLE

VersSource: CelesTrak SupGP

Epoch: Sep 15, 2026, 01:24 UTC

1 53149C 22083T   26258.05881944 -.00017216  00000+0 -50882-3 0  2581
2 53149  53.1600  20.9736 0001198  90.3440  14.1688 15.34389381    19

Volg STARLINK-4021 in realtime met AllMySat

Download on the App Store